Location: Unspecified
(0.0000°N, 0.0000°E)
Time: 05:44:01
(UTC+00:00)

HUMSAT D - Visible Passes

Search period start: 08 June 2023 00:00
Search period end: 18 June 2023 00:00
Orbit: 549 x 590 km, 97.5° (Epoch: 07 June)

Date Brightness Start Highest point End Pass type
(mag) Time Alt. Az. Time Alt. Az. Time Alt. Az.
13 Jun ? 04:26:50 10° E 04:27:36 10° ESE 04:28:22 10° ESE visible
14 Jun ? 04:27:59 10° E 04:29:14 11° ESE 04:30:27 10° ESE visible
15 Jun ? 04:29:15 10° E 04:30:48 12° ESE 04:32:23 10° SE visible
16 Jun ? 04:30:35 10° ENE 04:32:24 13° ESE 04:34:13 10° SE visible
17 Jun ? 04:31:56 10° ENE 04:33:57 14° ESE 04:36:00 10° SE visible
